This demonstration page uses our WeatherBlox Daily Observations layout. Learn more.

Left ArrowRight Arrow

38.20091, -84.87328

Hourly Observations for February 3, 2022

Temp ( °F °C ) Dew Point ( °F °C ) Humidity (%) Winds ( mph kmh ) Pressure ( in mb ) Visibility ( mi km ) Precip ( " mm )
12:49 am 00:49 Cloudy with Rain 48 9 48 9 100 100 Calm 30.06 1018 3 5 0.08 2.03
12:53 am 00:53 Cloudy with Rain 49 9.4 48 8.9 97 97 Calm 30.05 1018 3 5 0.09 2.29
1:00 am 01:00 Cloudy with Rain 49 9.4 48 8.9 97 97 WSW 5 7 30.06 1018 3 5 0.01 0.25
1:22 am 01:22 Cloudy with Light Rain 49 9.4 48 8.9 97 97 WSW 3 6 30.06 1018 5 8 0.04 1.02
1:33 am 01:33 Cloudy with Light Rain 47 8.3 46 7.8 97 97 NW 13 20 30.07 1018 5 8 0.05 1.27
1:40 am 01:40 Cloudy with Light Rain 43 6.1 41 5 93 93 NW 12 19 30.07 1018 6 10 0.06 1.52
1:44 am 01:44 Cloudy with Light Rain 41 5 40 4.4 96 96 NW 12 19 30.08 1018 5 8 0.06 1.52
1:53 am 01:53 Cloudy with Light Rain 40 4.4 39 3.9 97 97 NW 10 17 30.06 1018 5 8 0.07 1.78
2:05 am 02:05 Cloudy with Rain 40 4.4 39 3.9 97 97 NNW 9 15 30.08 1019 4 6 0.02 0.51
2:21 am 02:21 Cloudy with Light Rain 39 3.9 38 3.3 96 96 NNW 8 13 30.09 1019 6 10 0.04 1.02
2:44 am 02:44 Cloudy with Light Rain 39 3.9 38 3.3 96 96 NNW 7 11 30.09 1019 9 14 0.06 1.52
2:53 am 02:53 Cloudy with Light Rain 39 3.9 38 3.3 96 96 NNW 7 11 30.06 1018 5 8 0.06 1.52
3:53 am 03:53 Cloudy with Light Rain 38 3.3 37 2.8 97 97 N 6 9 30.06 1018 5 8 0.03 0.76
4:04 am 04:04 Cloudy 38 3.3 37 2.8 97 97 N 8 13 30.08 1019 9 14 0.00 0.00
4:53 am 04:53 Cloudy with Light Rain 36 2.2 35 1.7 97 97 N 8 13 30.06 1018 4 6 0.01 0.25
5:53 am 05:53 Cloudy with Light Rain 36 2.2 34 1.1 93 93 N 9 15 30.07 1018 7 11 0.03 0.76
6:53 am 06:53 Cloudy with Light Rain 35 1.7 34 1.1 96 96 NNE 12 19 30.06 1018 6 10 0.06 1.52
7:27 am 07:27 Cloudy with Light Rain 35 1.7 34 1.1 96 96 N 7 11 30.09 1019 8 13 0.01 0.25
7:53 am 07:53 Cloudy with Light Rain 35 1.7 33 0.6 93 93 NNE 8 13 30.06 1018 9 14 0.02 0.51
8:53 am 08:53 Cloudy with Light Rain 34 1.1 33 0.6 97 97 NNE 9 15 30.08 1019 3 5 0.12 3.05
9:22 am 09:22 Cloudy with Rain 34 1.1 33 0.6 97 97 N 7 11 30.14 1021 3 4 0.07 1.78
9:53 am 09:53 Cloudy with Heavy Rain 34 1.1 32 0 92 92 N 10 17 30.09 1019 3 4 0.21 5.33
9:58 am 09:58 Cloudy with Rain 34 1.1 32 0 92 92 N 12 19 30.12 1020 3 5 0.02 0.51
10:15 am 10:15 Cloudy with Rain 34 1.1 32 0 92 92 N 10 17 30.12 1020 4 6 0.06 1.52
10:53 am 10:53 Cloudy with Rain 34 1.1 32 0 92 92 NNE 10 17 30.08 1019 6 10 0.15 3.81
11:32 am 11:32 Cloudy with Rain 34 1.1 32 0 92 92 NNE 14 22 30.08 1019 5 8 0.07 1.78
11:49 am 11:49 Cloudy with Rain 34 1 32 0 93 93 N 8 13 30.11 1020 6 10 0.08 2.03
11:53 am 11:53 Cloudy with Rain 34 1.1 32 0 92 92 NNE 9 15 30.08 1019 4 6 0.09 2.29
12:26 pm 12:26 Cloudy with Light Rain 34 1.1 32 0 92 92 NNE 9 15 30.08 1019 5 8 0.08 2.03
12:34 pm 12:34 Cloudy with Rain 34 1.1 32 0 92 92 VRB 7 11 30.08 1019 4 6 0.10 2.54
12:53 pm 12:53 Cloudy with Rain 34 1.1 32 0 92 92 NNE 10 17 30.04 1017 4 6 0.13 3.30
1:53 pm 13:53 Cloudy with Light Rain 34 1.1 32 0 92 92 NNE 10 17 29.99 1016 5 8 0.05 1.27
2:16 pm 14:16 Cloudy with Light Rain 34 1.1 32 0 92 92 NNE 10 17 30.04 1017 7 11 0.01 0.25
2:32 pm 14:32 Cloudy with Rain 34 1.1 32 0 92 92 N 10 17 30.03 1017 5 8 0.05 1.27
2:53 pm 14:53 Cloudy with Light Rain 34 1.1 32 0 92 92 NNE 10 17 29.98 1015 7 11 0.08 2.03
3:18 pm 15:18 Cloudy with Rain 34 1.1 32 0 92 92 NNE 9 15 30.01 1016 4 6 0.03 0.76
3:25 pm 15:25 Cloudy with Rain 34 1.1 32 0 92 92 NNE 7 11 30.01 1016 4 6 0.05 1.27
3:53 pm 15:53 Cloudy with Rain 34 1.1 32 0 92 92 N 8 13 29.97 1015 4 6 0.11 2.79
4:32 pm 16:32 Cloudy with Rain 34 1.1 31 -0.6 89 89 NNE 14 22 30.02 1017 3 5 0.07 1.78
4:53 pm 16:53 Cloudy with Freezing Rain 34 1.1 31 -0.6 89 89 NNE 12 19 30.01 1016 4 6 0.11 2.79
5:09 pm 17:09 Cloudy with Light Freezing Rain 34 1.1 32 0 92 92 N 9 15 30.06 1018 4 6 0.03 0.76
5:20 pm 17:20 Cloudy with Freezing Rain 33 0.6 31 -0.6 92 92 N 13 20 30.04 1017 4 6 0.05 1.27
5:27 pm 17:27 Cloudy with Light Freezing Rain 33 0.6 31 -0.6 92 92 NNE 12 19 30.03 1017 5 8 0.05 1.27
5:53 pm 17:53 Cloudy with Light Freezing Rain 33 0.6 31 -0.6 92 92 N 10 17 29.99 1016 5 8 0.08 2.03
6:22 pm 18:22 Cloudy with Light Freezing Rain 34 1.1 31 -0.6 89 89 NNE 10 17 30.03 1017 6 10 0.03 0.76
6:53 pm 18:53 Cloudy with Light Freezing Rain 33 0.6 31 -0.6 92 92 N 10 17 30.02 1017 10 16 0.05 1.27
7:10 pm 19:10 Cloudy with Freezing Rain 33 0.6 31 -0.6 92 92 N 10 17 30.06 1018 4 6 0.04 1.02
7:37 pm 19:37 Cloudy with Light Freezing Rain 33 0.6 31 -0.6 92 92 N 12 19 30.07 1018 5 8 0.10 2.54
7:46 pm 19:46 Cloudy with Freezing Rain 33 0.6 31 -0.6 92 92 N 15 24 30.07 1018 4 6 0.12 3.05
7:53 pm 19:53 Cloudy with Freezing Rain 33 0.6 31 -0.6 92 92 N 13 20 30.04 1017 5 8 0.13 3.30
8:19 pm 20:19 Cloudy with Light Wintry Mix 32 0 30 -1.1 92 92 N 10 17 30.09 1019 3 4 0.05 1.27
8:33 pm 20:33 Cloudy with Light Wintry Mix 31 -0.6 29 -1.7 92 92 NNE 12 19 30.09 1019 2 3 0.08 2.03
8:53 pm 20:53 Cloudy with Light Wintry Mix 30 -1.1 28 -2.2 92 92 N 9 15 30.06 1018 2 3 0.11 2.79
8:55 pm 20:55 Cloudy with Light Snow 30 -1.1 28 -2.2 92 92 N 9 15 30.08 1019 2 3 0.01 0.25
9:20 pm 21:20 Cloudy with Light Snow 30 -1.1 28 -2.2 92 92 NNE 9 15 30.08 1019 2 3 0.03 0.76
9:28 pm 21:28 Cloudy with Light Snow 30 -1.1 28 -2.2 92 92 NNE 10 17 30.08 1019 3 5 0.03 0.76
9:38 pm 21:38 Cloudy with Light Wintry Mix 30 -1.1 28 -2.2 92 92 N 9 15 30.09 1019 3 5 0.04 1.02
9:48 pm 21:48 Cloudy with Light Snow 28 -2 27 -3 93 93 N 10 17 30.12 1020 2 3 0.04 1.02
9:53 pm 21:53 Cloudy with Light Snow 29 -1.7 26 -3.3 89 89 N 9 15 30.09 1019 3 4 0.05 1.27
10:00 pm 22:00 Cloudy with Light Wintry Mix 29 -1.7 26 -3.3 89 89 N 12 19 30.12 1020 3 4 0.00 0.00
10:07 pm 22:07 Cloudy with Light Wintry Mix 28 -2.2 26 -3.3 92 92 N 14 22 30.11 1020 3 5 0.01 0.25
10:21 pm 22:21 Cloudy with Light Snow 28 -2.2 26 -3.3 92 92 N 12 19 30.12 1020 2 3 0.02 0.51
10:39 pm 22:39 Cloudy with Light Wintry Mix 28 -2.2 25 -3.9 88 88 N 12 19 30.11 1020 2 3 0.03 0.76
10:53 pm 22:53 Cloudy with Light Snow 27 -2.8 25 -3.9 92 92 N 7 11 30.09 1019 3 4 0.04 1.02
11:02 pm 23:02 Cloudy with Light Snow 27 -2.8 24 -4.4 89 89 N 12 19 30.11 1020 3 5 0.01 0.25
11:18 pm 23:18 Cloudy with Light Snow 27 -2.8 24 -4.4 89 89 N 10 17 30.11 1020 3 4 0.02 0.51
11:31 pm 23:31 Cloudy with Light Snow 27 -2.8 24 -4.4 89 89 N 8 13 30.12 1020 3 4 0.03 0.76
11:50 pm 23:50 Cloudy with Light Snow 27 -3 23 -5 86 86 N 13 20 30.12 1020 3 5 0.05 1.27
11:53 pm 23:53 Cloudy with Light Snow 26 -3.3 23 -5 88 88 N 13 20 30.09 1019 3 5 0.05 1.27

Powered by AerisWeather